Time,TemperatureF,DewpointF,PressureIn,WindDirection,WindDirectionDegrees,WindSpeedMPH,WindSpeedGustMPH,Humidity,HourlyPrecipIn,Conditions,Clouds,dailyrainin,SoftwareType,DateUTC
2013-05-05 00:01:00,40.7,35.0,29.92,North,360,2.4,4.6,80,0.00,RA,SKC,0.00,WeatherDisplay:10.37,2013-05-05 05:01:00,
2013-05-05 00:06:00,40.5,34.8,29.92,North,360,2.8,3.5,80,0.00,RA,SKC,0.00,WeatherDisplay:10.37,2013-05-05 05:06:00,
2013-05-05 00:11:00,40.2,34.5,29.92,North,360,2.6,4.0,80,0.00,SCT,SKC,0.00,WeatherDisplay:10.37,2013-05-05 05:11:00,
2013-05-05 00:16:00,39.9,34.2,29.92,North,355,1.9,4.6,80,0.00,SCT,SKC,0.00,WeatherDisplay:10.37,2013-05-05 05:16:00,
2013-05-05 00:21:00,39.7,34.3,29.92,North,355,2.9,5.0,81,0.00,BKN,SKC,0.00,WeatherDisplay:10.37,2013-05-05 05:21:00,
2013-05-05 00:26:00,39.7,34.3,29.92,North,355,2.5,3.5,81,0.00,BKN,SKC,0.00,WeatherDisplay:10.37,2013-05-05 05:26:00,
2013-05-05 00:31:00,39.6,34.2,29.92,North,355,4.3,6.0,81,0.00,BKN,SKC,0.00,WeatherDisplay:10.37,2013-05-05 05:31:00,
2013-05-05 00:36:00,39.5,34.2,29.92,NNW,348,2.0,4.6,81,0.00,BKN,SKC,0.00,WeatherDisplay:10.37,2013-05-05 05:36:00,
2013-05-05 00:41:00,39.3,34.0,29.92,North,355,2.3,5.8,81,0.00,BKN,SKC,0.00,WeatherDisplay:10.37,2013-05-05 05:41:00,
2013-05-05 00:46:00,39.4,34.1,29.92,North,355,4.3,6.0,81,0.00,BKN,SKC,0.00,WeatherDisplay:10.37,2013-05-05 05:46:00,
2013-05-05 00:51:00,39.5,34.2,29.92,North,355,2.3,4.0,81,0.00,BKN,SKC,0.00,WeatherDisplay:10.37,2013-05-05 05:51:00,
2013-05-05 00:56:00,39.6,34.2,29.92,North,360,3.9,5.8,81,0.00,BKN,SKC,0.00,WeatherDisplay:10.37,2013-05-05 05:56:00,
2013-05-05 01:01:00,39.7,34.3,29.92,North,5,3.0,7.0,81,0.00,CLR,SKC,0.00,WeatherDisplay:10.37,2013-05-05 06:01:00,
2013-05-05 01:06:00,39.8,34.4,29.92,North,355,3.3,5.8,81,0.00,CLR,SKC,0.00,WeatherDisplay:10.37,2013-05-05 06:06:00,
2013-05-05 01:11:00,39.9,34.5,29.92,North,350,3.2,4.6,81,0.00,CLR,SKC,0.00,WeatherDisplay:10.37,2013-05-05 06:11:00,
2013-05-05 01:16:00,40.0,34.6,29.91,NNW,347,2.6,5.0,81,0.00,CLR,SKC,0.00,WeatherDisplay:10.37,2013-05-05 06:16:00,
2013-05-05 01:21:00,40.0,34.6,29.91,North,360,2.7,6.9,81,0.00,CLR,SKC,0.00,WeatherDisplay:10.37,2013-05-05 06:21:00,
2013-05-05 01:26:00,40.0,34.6,29.91,North,360,3.2,6.0,81,0.00,CLR,SKC,0.00,WeatherDisplay:10.37,2013-05-05 06:26:00,
2013-05-05 01:31:00,40.0,34.6,29.91,North,355,2.5,4.6,81,0.00,CLR,SKC,0.00,WeatherDisplay:10.37,2013-05-05 06:31:00,
2013-05-05 01:36:00,40.0,34.6,29.90,North,349,3.1,4.6,81,0.00,CLR,SKC,0.00,WeatherDisplay:10.37,2013-05-05 06:36:00,
2013-05-05 01:41:00,39.9,34.5,29.90,North,5,2.9,4.6,81,0.00,CLR,SKC,0.00,WeatherDisplay:10.37,2013-05-05 06:41:00,
2013-05-05 01:46:00,39.8,34.4,29.90,North,5,1.9,3.5,81,0.00,CLR,SKC,0.00,WeatherDisplay:10.37,2013-05-05 06:46:00,
2013-05-05 01:51:00,39.8,34.4,29.90,North,5,2.2,3.5,81,0.00,CLR,SKC,0.00,WeatherDisplay:10.37,2013-05-05 06:51:00,
2013-05-05 01:56:00,39.7,34.3,29.90,North,355,2.5,4.6,81,0.00,CLR,SKC,0.00,WeatherDisplay:10.37,2013-05-05 06:56:00,
2013-05-05 02:01:00,39.6,34.2,29.90,North,355,3.6,6.0,81,0.00,CLR,SKC,0.00,WeatherDisplay:10.37,2013-05-05 07:01:00,
2013-05-05 02:06:00,39.5,34.2,29.90,North,360,2.0,6.9,81,0.00,CLR,SKC,0.00,WeatherDisplay:10.37,2013-05-05 07:06:00,
2013-05-05 02:11:00,39.4,34.1,29.90,North,350,1.9,3.5,81,0.00,CLR,SKC,0.00,WeatherDisplay:10.37,2013-05-05 07:11:00,
2013-05-05 02:16:00,39.3,34.0,29.90,North,5,1.1,3.5,81,0.00,CLR,SKC,0.00,WeatherDisplay:10.37,2013-05-05 07:16:00,
2013-05-05 02:21:00,39.3,34.0,29.90,North,5,1.4,3.5,81,0.00,CLR,SKC,0.00,WeatherDisplay:10.37,2013-05-05 07:21:00,
2013-05-05 02:26:00,39.2,33.9,29.90,North,5,2.0,5.8,81,0.00,CLR,SKC,0.00,WeatherDisplay:10.37,2013-05-05 07:26:00,
2013-05-05 02:31:00,39.1,33.8,29.89,North,5,1.5,3.5,81,0.00,CLR,SKC,0.00,WeatherDisplay:10.37,2013-05-05 07:31:00,
2013-05-05 02:36:00,39.0,33.7,29.90,North,5,1.8,4.6,81,0.00,CLR,SKC,0.00,WeatherDisplay:10.37,2013-05-05 07:36:00,
2013-05-05 02:41:00,38.9,33.6,29.90,North,5,1.9,4.0,81,0.00,CLR,SKC,0.00,WeatherDisplay:10.37,2013-05-05 07:41:00,
2013-05-05 02:46:00,38.8,33.5,29.89,North,5,1.0,2.3,81,0.00,CLR,SKC,0.00,WeatherDisplay:10.37,2013-05-05 07:46:00,
2013-05-05 02:51:00,38.8,33.5,29.89,North,5,2.1,5.0,81,0.00,CLR,SKC,0.00,WeatherDisplay:10.37,2013-05-05 07:51:00,
2013-05-05 02:56:00,38.8,33.8,29.89,North,5,1.8,3.5,82,0.00,CLR,SKC,0.00,WeatherDisplay:10.37,2013-05-05 07:56:00,
2013-05-05 03:01:00,38.7,33.7,29.89,North,5,3.1,5.0,82,0.00,CLR,SKC,0.00,WeatherDisplay:10.37,2013-05-05 08:01:00,
2013-05-05 03:06:00,38.6,33.3,29.89,North,5,1.9,4.0,81,0.00,CLR,SKC,0.00,WeatherDisplay:10.37,2013-05-05 08:06:00,
2013-05-05 03:11:00,38.3,33.0,29.90,North,5,1.6,3.5,81,0.00,CLR,SKC,0.00,WeatherDisplay:10.37,2013-05-05 08:11:00,
2013-05-05 03:16:00,38.1,32.8,29.89,North,5,0.6,2.3,81,0.00,CLR,SKC,0.00,WeatherDisplay:10.37,2013-05-05 08:16:00,
2013-05-05 03:21:00,37.9,32.6,29.89,North,5,2.6,4.0,81,0.00,CLR,SKC,0.00,WeatherDisplay:10.37,2013-05-05 08:21:00,
2013-05-05 03:26:00,37.8,32.8,29.89,North,360,1.9,3.5,82,0.00,CLR,SKC,0.00,WeatherDisplay:10.37,2013-05-05 08:26:00,
2013-05-05 03:31:00,37.7,32.7,29.90,North,360,2.2,4.0,82,0.00,CLR,SKC,0.00,WeatherDisplay:10.37,2013-05-05 08:31:00,
2013-05-05 03:36:00,37.6,32.6,29.90,North,360,1.2,3.5,82,0.00,CLR,SKC,0.00,WeatherDisplay:10.37,2013-05-05 08:36:00,
2013-05-05 03:41:00,37.5,32.5,29.90,North,360,2.5,5.0,82,0.00,CLR,SKC,0.00,WeatherDisplay:10.37,2013-05-05 08:41:00,
2013-05-05 03:46:00,37.6,32.6,29.90,North,360,1.9,5.8,82,0.00,CLR,SKC,0.00,WeatherDisplay:10.37,2013-05-05 08:46:00,
2013-05-05 03:51:00,37.8,32.8,29.90,North,360,1.4,3.5,82,0.00,CLR,SKC,0.00,WeatherDisplay:10.37,2013-05-05 08:51:00,
2013-05-05 03:56:00,38.0,33.3,29.90,North,351,2.3,4.0,83,0.00,CLR,SKC,0.00,WeatherDisplay:10.37,2013-05-05 08:56:00,
2013-05-05 04:01:00,38.0,33.3,29.90,North,351,2.2,4.0,83,0.00,CLR,SKC,0.00,WeatherDisplay:10.37,2013-05-05 09:01:00,
2013-05-05 04:06:00,38.1,33.4,29.90,North,351,1.7,3.5,83,0.00,CLR,SKC,0.00,WeatherDisplay:10.37,2013-05-05 09:06:00,
2013-05-05 04:11:00,37.9,32.9,29.90,North,351,0.6,2.3,82,0.00,CLR,SKC,0.00,WeatherDisplay:10.37,2013-05-05 09:11:00,
2013-05-05 04:16:00,37.9,33.2,29.91,North,351,0.0,1.1,83,0.00,CLR,SKC,0.00,WeatherDisplay:10.37,2013-05-05 09:16:00,
2013-05-05 04:21:00,37.9,32.9,29.90,North,351,2.1,3.5,82,0.00,CLR,SKC,0.00,WeatherDisplay:10.37,2013-05-05 09:21:00,
2013-05-05 04:26:00,37.9,33.2,29.90,North,351,1.0,3.5,83,0.00,CLR,SKC,0.00,WeatherDisplay:10.37,2013-05-05 09:26:00,
2013-05-05 04:31:00,37.9,33.2,29.91,North,351,0.8,2.3,83,0.00,CLR,SKC,0.00,WeatherDisplay:10.37,2013-05-05 09:31:00,
2013-05-05 04:36:00,37.9,32.9,29.90,North,351,1.3,3.5,82,0.00,CLR,SKC,0.00,WeatherDisplay:10.37,2013-05-05 09:36:00,
2013-05-05 04:41:00,37.8,33.1,29.90,North,351,1.3,2.3,83,0.00,SCT,SKC,0.00,WeatherDisplay:10.37,2013-05-05 09:41:00,
2013-05-05 04:46:00,37.8,32.8,29.90,North,351,2.4,3.5,82,0.00,SCT,SKC,0.00,WeatherDisplay:10.37,2013-05-05 09:46:00,
2013-05-05 04:51:00,37.8,33.1,29.90,North,351,1.5,3.5,83,0.00,SCT,SKC,0.00,WeatherDisplay:10.37,2013-05-05 09:51:00,
2013-05-05 04:56:00,37.9,33.2,29.90,North,351,2.2,4.6,83,0.00,SCT,SKC,0.00,WeatherDisplay:10.37,2013-05-05 09:56:00,
2013-05-05 05:01:00,37.9,33.2,29.90,North,351,2.4,5.0,83,0.00,BKN,SKC,0.00,WeatherDisplay:10.37,2013-05-05 10:01:00,
2013-05-05 05:06:00,38.0,33.3,29.90,North,360,2.3,5.8,83,0.00,BKN,SKC,0.00,WeatherDisplay:10.37,2013-05-05 10:06:00,
2013-05-05 05:11:00,38.0,33.3,29.90,North,360,2.1,3.5,83,0.00,BKN,SKC,0.00,WeatherDisplay:10.37,2013-05-05 10:11:00,
2013-05-05 05:16:00,38.0,33.3,29.89,North,360,3.1,4.0,83,0.00,BKN,SKC,0.00,WeatherDisplay:10.37,2013-05-05 10:16:00,
2013-05-05 05:21:00,38.0,33.3,29.90,North,360,1.5,3.5,83,0.00,SCT,SKC,0.00,WeatherDisplay:10.37,2013-05-05 10:21:00,
2013-05-05 05:26:00,38.0,33.3,29.90,North,360,2.5,3.5,83,0.00,SCT,SKC,0.00,WeatherDisplay:10.37,2013-05-05 10:26:00,
2013-05-05 05:31:00,37.9,32.9,29.90,North,360,2.5,5.0,82,0.00,SCT,SKC,0.00,WeatherDisplay:10.37,2013-05-05 10:31:00,
2013-05-05 05:36:00,37.8,33.1,29.91,North,360,0.9,3.5,83,0.00,SCT,SKC,0.00,WeatherDisplay:10.37,2013-05-05 10:36:00,
2013-05-05 05:41:00,37.8,32.8,29.91,North,360,2.7,4.0,82,0.00,CLR,SKC,0.00,WeatherDisplay:10.37,2013-05-05 10:41:00,
2013-05-05 05:46:00,37.9,33.2,29.91,North,360,1.7,3.5,83,0.00,CLR,SKC,0.00,WeatherDisplay:10.37,2013-05-05 10:46:00,
2013-05-05 05:51:00,37.9,32.9,29.91,North,360,1.8,3.5,82,0.00,CLR,SKC,0.00,WeatherDisplay:10.37,2013-05-05 10:51:00,
2013-05-05 05:56:00,37.9,32.9,29.90,North,360,1.0,3.5,82,0.00,CLR,SKC,0.00,WeatherDisplay:10.37,2013-05-05 10:56:00,
2013-05-05 06:01:00,37.9,32.9,29.90,North,360,2.1,3.5,82,0.00,SCT,SKC,0.00,WeatherDisplay:10.37,2013-05-05 11:01:00,
2013-05-05 06:06:00,37.9,32.9,29.90,North,360,1.8,4.0,82,0.00,SCT,SKC,0.00,WeatherDisplay:10.37,2013-05-05 11:06:00,
2013-05-05 06:11:00,37.9,32.9,29.91,North,360,2.0,3.5,82,0.00,SCT,SKC,0.00,WeatherDisplay:10.37,2013-05-05 11:11:00,
2013-05-05 06:16:00,38.0,33.0,29.91,North,360,2.5,4.6,82,0.00,SCT,SKC,0.00,WeatherDisplay:10.37,2013-05-05 11:16:00,
2013-05-05 06:21:00,38.1,33.1,29.91,North,355,2.0,5.8,82,0.00,SCT,SKC,0.00,WeatherDisplay:10.37,2013-05-05 11:21:00,
2013-05-05 06:26:00,38.0,33.0,29.91,North,355,1.4,3.5,82,0.00,SCT,SKC,0.00,WeatherDisplay:10.37,2013-05-05 11:26:00,
2013-05-05 06:31:00,37.9,32.9,29.91,North,360,2.4,5.8,82,0.00,SCT,SKC,0.00,WeatherDisplay:10.37,2013-05-05 11:31:00,
2013-05-05 06:36:00,37.9,32.9,29.91,North,360,2.2,4.0,82,0.00,SCT,SKC,0.00,WeatherDisplay:10.37,2013-05-05 11:36:00,
2013-05-05 06:41:00,37.9,32.9,29.91,North,360,2.6,5.8,82,0.00,SCT,SKC,0.00,WeatherDisplay:10.37,2013-05-05 11:41:00,
2013-05-05 06:46:00,37.8,32.8,29.92,North,360,1.8,3.5,82,0.00,SCT,SKC,0.00,WeatherDisplay:10.37,2013-05-05 11:46:00,
2013-05-05 06:51:00,37.7,32.7,29.91,North,360,1.2,3.5,82,0.00,SCT,SKC,0.00,WeatherDisplay:10.37,2013-05-05 11:51:00,
2013-05-05 06:56:00,37.8,32.8,29.91,North,360,1.3,3.5,82,0.00,SCT,SKC,0.00,WeatherDisplay:10.37,2013-05-05 11:56:00,
2013-05-05 07:01:00,37.8,32.8,29.91,North,360,1.3,2.3,82,0.00,SCT,SKC,0.00,WeatherDisplay:10.37,2013-05-05 12:01:00,
2013-05-05 07:06:00,37.9,32.9,29.91,North,360,2.5,3.5,82,0.00,SCT,SKC,0.00,WeatherDisplay:10.37,2013-05-05 12:06:00,
2013-05-05 07:11:00,38.1,33.1,29.91,North,360,2.8,4.0,82,0.00,SCT,SKC,0.00,WeatherDisplay:10.37,2013-05-05 12:11:00,
2013-05-05 07:16:00,38.3,33.3,29.92,North,355,2.6,4.0,82,0.00,SCT,SKC,0.00,WeatherDisplay:10.37,2013-05-05 12:16:00,
2013-05-05 07:21:00,38.4,33.4,29.91,North,355,2.8,3.5,82,0.00,SCT,SKC,0.00,WeatherDisplay:10.37,2013-05-05 12:21:00,
2013-05-05 07:26:00,38.5,33.2,29.92,North,355,2.2,4.0,81,0.00,SCT,SKC,0.00,WeatherDisplay:10.37,2013-05-05 12:26:00,
2013-05-05 07:31:00,38.5,33.2,29.92,North,355,1.9,5.0,81,0.00,SCT,SKC,0.00,WeatherDisplay:10.37,2013-05-05 12:31:00,
2013-05-05 07:36:00,38.6,33.3,29.91,North,355,1.4,3.5,81,0.00,SCT,SKC,0.00,WeatherDisplay:10.37,2013-05-05 12:36:00,
2013-05-05 07:41:00,38.8,33.5,29.92,North,355,1.8,3.5,81,0.00,SCT,SKC,0.00,WeatherDisplay:10.37,2013-05-05 12:41:00,
2013-05-05 07:46:00,38.9,33.6,29.92,North,355,1.6,3.5,81,0.00,SCT,SKC,0.00,WeatherDisplay:10.37,2013-05-05 12:46:00,
2013-05-05 07:51:00,39.1,33.8,29.92,North,355,2.0,4.0,81,0.00,SCT,SKC,0.00,WeatherDisplay:10.37,2013-05-05 12:51:00,
2013-05-05 07:56:00,39.3,34.0,29.92,North,355,2.0,3.5,81,0.00,SCT,SKC,0.00,WeatherDisplay:10.37,2013-05-05 12:56:00,
2013-05-05 08:01:00,39.5,33.8,29.92,North,355,2.7,4.0,80,0.00,SCT,SKC,0.00,WeatherDisplay:10.37,2013-05-05 13:01:00,
2013-05-05 08:06:00,39.5,33.8,29.92,North,360,1.9,5.0,80,0.00,SCT,SKC,0.00,WeatherDisplay:10.37,2013-05-05 13:06:00,
2013-05-05 08:11:00,39.4,33.7,29.92,North,360,3.8,5.8,80,0.00,SCT,SKC,0.00,WeatherDisplay:10.37,2013-05-05 13:11:00,
2013-05-05 08:16:00,39.5,33.8,29.92,North,355,3.7,5.0,80,0.00,SCT,SKC,0.00,WeatherDisplay:10.37,2013-05-05 13:16:00,
2013-05-05 08:21:00,39.6,33.9,29.92,North,355,2.8,4.6,80,0.00,CLR,SKC,0.00,WeatherDisplay:10.37,2013-05-05 13:21:00,
2013-05-05 08:26:00,39.8,33.8,29.92,North,355,2.4,3.5,79,0.00,CLR,SKC,0.00,WeatherDisplay:10.37,2013-05-05 13:26:00,
2013-05-05 08:31:00,40.0,34.0,29.92,North,355,2.6,4.0,79,0.00,CLR,SKC,0.00,WeatherDisplay:10.37,2013-05-05 13:31:00,
2013-05-05 08:36:00,40.0,34.0,29.92,North,355,4.1,5.8,79,0.00,CLR,SKC,0.00,WeatherDisplay:10.37,2013-05-05 13:36:00,
2013-05-05 08:41:00,40.0,34.0,29.93,North,355,2.9,5.0,79,0.00,SCT,SKC,0.00,WeatherDisplay:10.37,2013-05-05 13:41:00,
2013-05-05 08:46:00,40.0,34.0,29.93,North,355,2.0,4.0,79,0.00,SCT,SKC,0.00,WeatherDisplay:10.37,2013-05-05 13:46:00,
2013-05-05 08:51:00,40.0,34.0,29.93,North,355,2.1,3.5,79,0.00,SCT,SKC,0.00,WeatherDisplay:10.37,2013-05-05 13:51:00,
2013-05-05 08:56:00,40.0,34.0,29.93,North,355,2.1,4.6,79,0.00,SCT,SKC,0.00,WeatherDisplay:10.37,2013-05-05 13:56:00,
2013-05-05 09:01:00,40.0,34.0,29.93,North,355,2.5,5.0,79,0.00,SCT,SKC,0.00,WeatherDisplay:10.37,2013-05-05 14:01:00,
2013-05-05 09:06:00,40.2,34.2,29.93,North,355,2.4,4.0,79,0.00,SCT,SKC,0.00,WeatherDisplay:10.37,2013-05-05 14:06:00,
2013-05-05 09:11:00,40.3,34.3,29.93,North,350,2.7,4.0,79,0.00,SCT,SKC,0.00,WeatherDisplay:10.37,2013-05-05 14:11:00,
2013-05-05 09:16:00,40.4,34.4,29.93,North,355,1.9,3.5,79,0.00,SCT,SKC,0.00,WeatherDisplay:10.37,2013-05-05 14:16:00,
2013-05-05 09:21:00,40.4,34.4,29.93,North,355,0.8,2.0,79,0.00,BKN,SKC,0.00,WeatherDisplay:10.37,2013-05-05 14:21:00,
2013-05-05 09:26:00,40.7,34.7,29.92,North,360,1.3,3.5,79,0.00,BKN,SKC,0.00,WeatherDisplay:10.37,2013-05-05 14:26:00,
2013-05-05 09:31:00,41.0,34.7,29.92,North,360,0.4,2.3,78,0.00,BKN,SKC,0.00,WeatherDisplay:10.37,2013-05-05 14:31:00,
2013-05-05 09:36:00,41.1,34.4,29.92,North,360,2.1,3.5,77,0.00,BKN,SKC,0.00,WeatherDisplay:10.37,2013-05-05 14:36:00,
2013-05-05 09:41:00,41.1,34.4,29.92,North,360,0.6,3.5,77,0.00,BKN,SKC,0.00,WeatherDisplay:10.37,2013-05-05 14:41:00,
2013-05-05 09:46:00,41.3,34.6,29.92,North,360,2.3,4.6,77,0.00,BKN,SKC,0.00,WeatherDisplay:10.37,2013-05-05 14:46:00,
2013-05-05 09:51:00,41.3,34.6,29.92,North,360,2.5,3.5,77,0.00,BKN,SKC,0.00,WeatherDisplay:10.37,2013-05-05 14:51:00,
2013-05-05 09:56:00,41.4,35.1,29.92,North,360,2.0,3.5,78,0.00,BKN,SKC,0.00,WeatherDisplay:10.37,2013-05-05 14:56:00,
2013-05-05 10:01:00,41.5,34.8,29.92,North,360,1.2,2.3,77,0.00,BKN,SKC,0.00,WeatherDisplay:10.37,2013-05-05 15:01:00,
2013-05-05 10:06:00,41.7,35.0,29.92,North,360,2.0,3.5,77,0.00,BKN,SKC,0.00,WeatherDisplay:10.37,2013-05-05 15:06:00,
2013-05-05 10:11:00,41.8,35.1,29.92,North,360,2.7,4.0,77,0.00,BKN,SKC,0.00,WeatherDisplay:10.37,2013-05-05 15:11:00,
2013-05-05 10:16:00,42.1,35.4,29.92,NNE,17,3.5,5.0,77,0.00,BKN,SKC,0.00,WeatherDisplay:10.37,2013-05-05 15:16:00,
2013-05-05 10:21:00,42.4,35.4,29.92,NE,34,4.2,7.0,76,0.00,BKN,SKC,0.00,WeatherDisplay:10.37,2013-05-05 15:21:00,
2013-05-05 10:26:00,42.8,35.8,29.92,NNE,32,2.6,4.6,76,0.00,BKN,SKC,0.00,WeatherDisplay:10.37,2013-05-05 15:26:00,
2013-05-05 10:31:00,43.1,35.7,29.92,NNE,28,2.5,4.0,75,0.00,BKN,SKC,0.00,WeatherDisplay:10.37,2013-05-05 15:31:00,
2013-05-05 10:36:00,43.3,35.9,29.92,NNE,19,2.1,4.6,75,0.00,BKN,SKC,0.00,WeatherDisplay:10.37,2013-05-05 15:36:00,
2013-05-05 10:41:00,43.7,36.3,29.93,NNE,16,2.9,5.0,75,0.00,SCT,SKC,0.00,WeatherDisplay:10.37,2013-05-05 15:41:00,
2013-05-05 10:46:00,44.0,36.6,29.93,NNE,12,3.3,5.0,75,0.00,SCT,SKC,0.00,WeatherDisplay:10.37,2013-05-05 15:46:00,
2013-05-05 10:51:00,44.1,36.3,29.93,North,5,2.3,4.6,74,0.00,SCT,SKC,0.00,WeatherDisplay:10.37,2013-05-05 15:51:00,
2013-05-05 10:56:00,44.1,36.3,29.93,North,5,3.0,5.0,74,0.00,SCT,SKC,0.00,WeatherDisplay:10.37,2013-05-05 15:56:00,
2013-05-05 11:01:00,44.3,36.5,29.92,North,360,3.6,6.0,74,0.00,SCT,SKC,0.00,WeatherDisplay:10.37,2013-05-05 16:01:00,
2013-05-05 11:06:00,44.1,36.3,29.92,North,360,3.6,5.0,74,0.00,SCT,SKC,0.00,WeatherDisplay:10.37,2013-05-05 16:06:00,
2013-05-05 11:11:00,44.3,36.5,29.92,North,350,3.4,6.0,74,0.00,CLR,SKC,0.00,WeatherDisplay:10.37,2013-05-05 16:11:00,
2013-05-05 11:16:00,44.5,36.7,29.93,North,350,3.4,4.0,74,0.00,CLR,SKC,0.00,WeatherDisplay:10.37,2013-05-05 16:16:00,
2013-05-05 11:21:00,44.8,37.0,29.93,North,349,2.4,4.6,74,0.00,CLR,SKC,0.00,WeatherDisplay:10.37,2013-05-05 16:21:00,
2013-05-05 11:26:00,45.2,37.4,29.93,NNE,13,2.1,6.0,74,0.00,CLR,SKC,0.00,WeatherDisplay:10.37,2013-05-05 16:26:00,
2013-05-05 11:31:00,45.7,37.5,29.93,NE,36,2.5,4.6,73,0.00,CLR,SKC,0.00,WeatherDisplay:10.37,2013-05-05 16:31:00,
2013-05-05 11:36:00,46.0,37.8,29.93,NNE,32,2.3,4.6,73,0.00,CLR,SKC,0.00,WeatherDisplay:10.37,2013-05-05 16:36:00,
2013-05-05 11:41:00,46.1,37.9,29.93,NNE,26,3.0,5.0,73,0.00,SCT,SKC,0.00,WeatherDisplay:10.37,2013-05-05 16:41:00,
2013-05-05 11:46:00,46.4,38.2,29.93,NNE,19,3.5,5.0,73,0.00,SCT,SKC,0.00,WeatherDisplay:10.37,2013-05-05 16:46:00,
2013-05-05 11:52:00,46.7,38.5,29.92,NNE,12,2.6,5.0,73,0.00,SCT,SKC,0.00,WeatherDisplay:10.37,2013-05-05 16:52:00,
2013-05-05 11:57:00,46.6,38.1,29.92,North,11,2.7,4.0,72,0.00,SCT,SKC,0.00,WeatherDisplay:10.37,2013-05-05 16:57:00,
2013-05-05 12:02:00,46.7,38.5,29.92,NNW,342,4.0,4.6,73,0.00,SCT,SKC,0.00,WeatherDisplay:10.37,2013-05-05 17:02:00,
2013-05-05 12:07:00,46.8,38.6,29.92,NW,325,3.9,5.8,73,0.00,SCT,SKC,0.00,WeatherDisplay:10.37,2013-05-05 17:07:00,
2013-05-05 12:12:00,46.8,38.9,29.92,NW,325,4.5,5.8,74,0.00,SCT,SKC,0.00,WeatherDisplay:10.37,2013-05-05 17:12:00,
2013-05-05 12:17:00,47.3,39.4,29.92,NNW,336,2.8,5.8,74,0.00,SCT,SKC,0.00,WeatherDisplay:10.37,2013-05-05 17:17:00,
2013-05-05 12:22:00,47.6,39.4,29.92,NNW,332,2.5,4.0,73,0.00,CLR,SKC,0.00,WeatherDisplay:10.37,2013-05-05 17:22:00,
2013-05-05 12:27:00,48.0,39.8,29.91,NNW,329,4.2,6.0,73,0.00,CLR,SKC,0.00,WeatherDisplay:10.37,2013-05-05 17:27:00,
2013-05-05 12:32:00,48.0,39.8,29.91,NNW,327,2.9,5.8,73,0.00,CLR,SKC,0.00,WeatherDisplay:10.37,2013-05-05 17:32:00,
2013-05-05 12:37:00,48.0,39.8,29.91,NW,319,4.1,6.0,73,0.00,CLR,SKC,0.00,WeatherDisplay:10.37,2013-05-05 17:37:00,
2013-05-05 12:42:00,48.2,39.9,29.91,NW,319,4.3,5.8,73,0.00,CLR,SKC,0.00,WeatherDisplay:10.37,2013-05-05 17:42:00,
2013-05-05 12:47:00,48.5,40.2,29.92,NW,319,3.7,4.6,73,0.00,CLR,SKC,0.00,WeatherDisplay:10.37,2013-05-05 17:47:00,
2013-05-05 12:52:00,48.7,40.1,29.92,NW,319,3.7,4.6,72,0.00,CLR,SKC,0.00,WeatherDisplay:10.37,2013-05-05 17:52:00,
2013-05-05 12:57:00,49.0,41.1,29.91,NW,319,4.3,5.0,74,0.00,CLR,SKC,0.00,WeatherDisplay:10.37,2013-05-05 17:57:00,
2013-05-05 13:02:00,49.4,40.7,29.91,NW,319,2.6,4.6,72,0.00,CLR,SKC,0.00,WeatherDisplay:10.37,2013-05-05 18:02:00,
2013-05-05 13:07:00,49.7,41.0,29.91,NW,321,3.3,4.6,72,0.00,CLR,SKC,0.00,WeatherDisplay:10.37,2013-05-05 18:07:00,
2013-05-05 13:12:00,49.9,41.2,29.91,NW,321,2.2,4.6,72,0.00,CLR,SKC,0.00,WeatherDisplay:10.37,2013-05-05 18:12:00,
2013-05-05 13:17:00,50.3,41.6,29.91,NNW,328,2.7,4.6,72,0.00,CLR,SKC,0.00,WeatherDisplay:10.37,2013-05-05 18:17:00,
2013-05-05 13:22:00,50.6,41.5,29.91,NNW,329,3.7,5.0,71,0.00,SCT,SKC,0.00,WeatherDisplay:10.37,2013-05-05 18:22:00,
2013-05-05 13:27:00,50.9,42.2,29.91,NNW,338,3.0,4.6,72,0.00,SCT,SKC,0.00,WeatherDisplay:10.37,2013-05-05 18:27:00,
2013-05-05 13:32:00,51.1,42.4,29.91,NNW,338,3.8,6.0,72,0.00,SCT,SKC,0.00,WeatherDisplay:10.37,2013-05-05 18:32:00,
2013-05-05 13:37:00,51.2,42.5,29.90,NW,317,5.2,7.0,72,0.00,SCT,SKC,0.00,WeatherDisplay:10.37,2013-05-05 18:37:00,
2013-05-05 13:42:00,51.3,42.6,29.90,NW,309,4.7,6.9,72,0.00,CLR,SKC,0.00,WeatherDisplay:10.37,2013-05-05 18:42:00,
2013-05-05 13:47:00,51.6,43.2,29.90,NW,306,4.8,7.0,73,0.00,CLR,SKC,0.00,WeatherDisplay:10.37,2013-05-05 18:47:00,
2013-05-05 13:52:00,52.1,43.3,29.90,NW,322,2.9,6.0,72,0.00,CLR,SKC,0.00,WeatherDisplay:10.37,2013-05-05 18:52:00,
2013-05-05 13:57:00,52.5,43.7,29.90,NW,315,5.0,8.1,72,0.00,CLR,SKC,0.00,WeatherDisplay:10.37,2013-05-05 18:57:00,
2013-05-05 14:02:00,52.6,43.8,29.90,NW,312,3.6,6.0,72,0.00,CLR,SKC,0.00,WeatherDisplay:10.37,2013-05-05 19:02:00,
2013-05-05 14:07:00,52.8,44.0,29.89,WNW,302,4.4,7.0,72,0.00,CLR,SKC,0.00,WeatherDisplay:10.37,2013-05-05 19:07:00,
2013-05-05 14:12:00,53.0,44.2,29.89,WNW,302,4.4,6.9,72,0.00,CLR,SKC,0.00,WeatherDisplay:10.37,2013-05-05 19:12:00,
2013-05-05 14:17:00,53.5,45.1,29.89,WNW,302,4.7,6.9,73,0.00,CLR,SKC,0.00,WeatherDisplay:10.37,2013-05-05 19:17:00,
2013-05-05 14:22:00,53.9,45.4,29.89,WNW,302,4.2,6.0,73,0.00,CLR,SKC,0.00,WeatherDisplay:10.37,2013-05-05 19:22:00,
2013-05-05 14:27:00,54.2,45.4,29.89,WNW,302,3.6,6.0,72,0.00,CLR,SKC,0.00,WeatherDisplay:10.37,2013-05-05 19:27:00,
2013-05-05 14:32:00,54.5,45.3,29.89,NW,315,3.0,5.0,71,0.00,CLR,SKC,0.00,WeatherDisplay:10.37,2013-05-05 19:32:00,
2013-05-05 14:37:00,54.9,46.0,29.89,NNW,327,1.8,3.5,72,0.00,CLR,SKC,0.00,WeatherDisplay:10.37,2013-05-05 19:37:00,
2013-05-05 14:42:00,55.1,45.9,29.89,NNW,345,3.1,5.0,71,0.00,CLR,SKC,0.00,WeatherDisplay:10.37,2013-05-05 19:42:00,
2013-05-05 14:47:00,55.2,46.0,29.88,North,355,2.9,6.9,71,0.00,CLR,SKC,0.00,WeatherDisplay:10.37,2013-05-05 19:47:00,
2013-05-05 14:52:00,55.5,46.2,29.88,North,355,2.5,6.9,71,0.00,CLR,SKC,0.00,WeatherDisplay:10.37,2013-05-05 19:52:00,
2013-05-05 14:57:00,56.0,46.7,29.88,North,355,3.3,5.0,71,0.00,CLR,SKC,0.00,WeatherDisplay:10.37,2013-05-05 19:57:00,
2013-05-05 15:02:00,56.1,46.8,29.88,NNW,348,3.1,6.0,71,0.00,CLR,SKC,0.00,WeatherDisplay:10.37,2013-05-05 20:02:00,
2013-05-05 15:07:00,56.4,47.1,29.88,NNW,342,3.4,5.8,71,0.00,CLR,SKC,0.00,WeatherDisplay:10.37,2013-05-05 20:07:00,
2013-05-05 15:12:00,56.6,46.9,29.87,NNW,343,3.0,4.0,70,0.00,CLR,SKC,0.00,WeatherDisplay:10.37,2013-05-05 20:12:00,
2013-05-05 15:17:00,56.9,47.6,29.87,NNW,329,4.3,5.8,71,0.00,CLR,SKC,0.00,WeatherDisplay:10.37,2013-05-05 20:17:00,
2013-05-05 15:22:00,57.2,47.9,29.87,NNW,334,3.4,5.0,71,0.00,CLR,SKC,0.00,WeatherDisplay:10.37,2013-05-05 20:22:00,
2013-05-05 15:27:00,57.4,48.1,29.86,NNW,336,2.3,4.0,71,0.00,CLR,SKC,0.00,WeatherDisplay:10.37,2013-05-05 20:27:00,
2013-05-05 15:32:00,57.5,47.8,29.86,NNW,336,2.5,4.6,70,0.00,CLR,SKC,0.00,WeatherDisplay:10.37,2013-05-05 20:32:00,
2013-05-05 15:37:00,57.7,48.0,29.86,NW,326,3.6,5.0,70,0.00,CLR,SKC,0.00,WeatherDisplay:10.37,2013-05-05 20:37:00,
2013-05-05 15:42:00,58.0,48.3,29.86,NNW,331,3.5,4.0,70,0.00,CLR,SKC,0.00,WeatherDisplay:10.37,2013-05-05 20:42:00,
2013-05-05 15:47:00,58.6,48.8,29.86,NNW,329,1.9,4.6,70,0.00,CLR,SKC,0.00,WeatherDisplay:10.37,2013-05-05 20:47:00,
2013-05-05 15:52:00,58.9,49.1,29.86,NW,313,5.0,8.1,70,0.00,CLR,SKC,0.00,WeatherDisplay:10.37,2013-05-05 20:52:00,
2013-05-05 15:57:00,59.0,49.2,29.86,NW,313,3.9,7.0,70,0.00,CLR,SKC,0.00,WeatherDisplay:10.37,2013-05-05 20:57:00,
2013-05-05 16:02:00,59.1,49.3,29.86,NW,314,3.0,6.0,70,0.00,SCT,SKC,0.00,WeatherDisplay:10.37,2013-05-05 21:02:00,
2013-05-05 16:07:00,59.4,49.6,29.86,North,350,3.8,6.0,70,0.00,SCT,SKC,0.00,WeatherDisplay:10.37,2013-05-05 21:07:00,
2013-05-05 16:12:00,59.5,49.7,29.86,North,349,2.7,5.0,70,0.00,SCT,SKC,0.00,WeatherDisplay:10.37,2013-05-05 21:12:00,
2013-05-05 16:17:00,60.0,50.6,29.86,NNW,342,3.2,5.0,71,0.00,SCT,SKC,0.00,WeatherDisplay:10.37,2013-05-05 21:17:00,
2013-05-05 16:22:00,60.3,50.1,29.86,NNW,333,1.1,3.5,69,0.00,CLR,SKC,0.00,WeatherDisplay:10.37,2013-05-05 21:22:00,
2013-05-05 16:27:00,60.5,50.7,29.85,NNW,333,1.6,3.5,70,0.00,CLR,SKC,0.00,WeatherDisplay:10.37,2013-05-05 21:27:00,
2013-05-05 16:32:00,60.6,50.8,29.86,NNW,333,3.4,6.0,70,0.00,CLR,SKC,0.00,WeatherDisplay:10.37,2013-05-05 21:32:00,
2013-05-05 16:37:00,60.6,50.4,29.85,NNW,329,3.2,5.8,69,0.00,CLR,SKC,0.00,WeatherDisplay:10.37,2013-05-05 21:37:00,
2013-05-05 16:42:00,60.8,51.0,29.85,NNW,329,2.8,4.6,70,0.00,CLR,SKC,0.00,WeatherDisplay:10.37,2013-05-05 21:42:00,
2013-05-05 16:47:00,60.9,51.0,29.85,North,355,2.1,4.6,70,0.00,CLR,SKC,0.00,WeatherDisplay:10.37,2013-05-05 21:47:00,
2013-05-05 16:52:00,60.9,51.0,29.85,North,355,3.0,5.8,70,0.00,CLR,SKC,0.00,WeatherDisplay:10.37,2013-05-05 21:52:00,
2013-05-05 16:57:00,60.8,51.0,29.85,North,355,1.5,3.5,70,0.00,CLR,SKC,0.00,WeatherDisplay:10.37,2013-05-05 21:57:00,
2013-05-05 17:02:00,60.7,50.9,29.85,North,360,2.2,5.8,70,0.00,CLR,SKC,0.00,WeatherDisplay:10.37,2013-05-05 22:02:00,
2013-05-05 17:07:00,60.7,50.9,29.85,North,355,1.8,3.5,70,0.00,CLR,SKC,0.00,WeatherDisplay:10.37,2013-05-05 22:07:00,
2013-05-05 17:12:00,60.9,50.7,29.85,NNW,338,4.2,5.0,69,0.00,CLR,SKC,0.00,WeatherDisplay:10.37,2013-05-05 22:12:00,
2013-05-05 17:17:00,60.9,51.0,29.84,NNW,338,3.2,5.0,70,0.00,CLR,SKC,0.00,WeatherDisplay:10.37,2013-05-05 22:17:00,
2013-05-05 17:22:00,61.1,51.2,29.84,NNW,340,2.7,5.0,70,0.00,CLR,SKC,0.00,WeatherDisplay:10.37,2013-05-05 22:22:00,
2013-05-05 17:27:00,61.1,51.2,29.85,NNW,346,2.3,4.6,70,0.00,CLR,SKC,0.00,WeatherDisplay:10.37,2013-05-05 22:27:00,
2013-05-05 17:32:00,61.2,51.3,29.84,NNW,348,2.7,5.0,70,0.00,CLR,SKC,0.00,WeatherDisplay:10.37,2013-05-05 22:32:00,
2013-05-05 17:37:00,61.2,50.9,29.84,NNW,338,1.5,4.6,69,0.00,CLR,SKC,0.00,WeatherDisplay:10.37,2013-05-05 22:37:00,
2013-05-05 17:42:00,61.3,51.4,29.84,NNW,345,1.9,3.5,70,0.00,CLR,SKC,0.00,WeatherDisplay:10.37,2013-05-05 22:42:00,
2013-05-05 17:47:00,61.3,51.4,29.84,NNW,348,1.7,3.5,70,0.00,CLR,SKC,0.00,WeatherDisplay:10.37,2013-05-05 22:47:00,
2013-05-05 17:52:00,61.3,51.0,29.84,NNW,348,1.5,3.5,69,0.00,CLR,SKC,0.00,WeatherDisplay:10.37,2013-05-05 22:52:00,
2013-05-05 17:57:00,61.5,51.6,29.84,North,355,2.1,4.6,70,0.00,CLR,SKC,0.00,WeatherDisplay:10.37,2013-05-05 22:57:00,
2013-05-05 18:02:00,61.6,51.7,29.84,NNW,348,1.0,4.6,70,0.00,CLR,SKC,0.00,WeatherDisplay:10.37,2013-05-05 23:02:00,
2013-05-05 18:07:00,61.7,51.4,29.84,NNW,348,1.9,4.0,69,0.00,CLR,SKC,0.00,WeatherDisplay:10.37,2013-05-05 23:07:00,
2013-05-05 18:12:00,61.7,51.8,29.84,NNW,348,1.8,3.5,70,0.00,CLR,SKC,0.00,WeatherDisplay:10.37,2013-05-05 23:12:00,
2013-05-05 18:17:00,61.6,51.7,29.84,NNW,348,1.7,3.5,70,0.00,CLR,SKC,0.00,WeatherDisplay:10.37,2013-05-05 23:17:00,
2013-05-05 18:22:00,61.6,51.7,29.84,NNW,348,1.3,3.5,70,0.00,CLR,SKC,0.00,WeatherDisplay:10.37,2013-05-05 23:22:00,
2013-05-05 18:27:00,61.3,51.4,29.84,NNW,348,1.2,3.5,70,0.00,CLR,SKC,0.00,WeatherDisplay:10.37,2013-05-05 23:27:00,
2013-05-05 18:32:00,61.2,51.3,29.84,NNW,348,0.6,3.5,70,0.00,CLR,SKC,0.00,WeatherDisplay:10.37,2013-05-05 23:32:00,
2013-05-05 18:37:00,61.1,50.8,29.84,NNW,348,0.8,3.0,69,0.00,CLR,SKC,0.00,WeatherDisplay:10.37,2013-05-05 23:37:00,
2013-05-05 18:42:00,61.1,50.8,29.84,NNW,348,1.4,3.5,69,0.00,CLR,SKC,0.00,WeatherDisplay:10.37,2013-05-05 23:42:00,
2013-05-05 18:47:00,61.0,50.8,29.84,NNW,348,0.2,2.3,69,0.00,CLR,SKC,0.00,WeatherDisplay:10.37,2013-05-05 23:47:00,
2013-05-05 18:52:00,60.7,50.9,29.85,NNW,348,3.0,4.0,70,0.00,CLR,SKC,0.00,WeatherDisplay:10.37,2013-05-05 23:52:00,
2013-05-05 18:57:00,60.2,50.4,29.84,NNW,348,1.8,3.5,70,0.00,CLR,SKC,0.00,WeatherDisplay:10.37,2013-05-05 23:57:00,
2013-05-05 19:02:00,59.7,49.9,29.84,NNW,348,0.1,2.3,70,0.00,CLR,SKC,0.00,WeatherDisplay:10.37,2013-05-06 00:02:00,
2013-05-05 19:07:00,59.4,49.6,29.84,NNW,348,0.3,2.3,70,0.00,CLR,SKC,0.00,WeatherDisplay:10.37,2013-05-06 00:07:00,
2013-05-05 19:12:00,59.2,49.4,29.84,NNW,348,1.5,2.3,70,0.00,CLR,SKC,0.00,WeatherDisplay:10.37,2013-05-06 00:12:00,
2013-05-05 19:17:00,58.9,49.1,29.84,NNW,348,0.2,1.1,70,0.00,CLR,SKC,0.00,WeatherDisplay:10.37,2013-05-06 00:17:00,
2013-05-05 19:22:00,58.5,48.7,29.84,NNW,348,0.2,2.0,70,0.00,CLR,SKC,0.00,WeatherDisplay:10.37,2013-05-06 00:22:00,
2013-05-05 19:27:00,58.1,48.7,29.85,NNW,348,0.0,0.0,71,0.00,CLR,SKC,0.00,WeatherDisplay:10.37,2013-05-06 00:27:00,
2013-05-05 19:32:00,57.9,48.2,29.85,NNW,348,0.0,1.0,70,0.00,CLR,SKC,0.00,WeatherDisplay:10.37,2013-05-06 00:32:00,
2013-05-05 19:37:00,57.8,48.1,29.85,NNW,348,0.0,0.0,70,0.00,CLR,SKC,0.00,WeatherDisplay:10.37,2013-05-06 00:37:00,
2013-05-05 19:42:00,57.7,48.0,29.85,NNW,348,0.0,0.0,70,0.00,SCT,SKC,0.00,WeatherDisplay:10.37,2013-05-06 00:42:00,
2013-05-05 19:47:00,57.5,47.8,29.85,NNW,348,0.1,1.1,70,0.00,SCT,SKC,0.00,WeatherDisplay:10.37,2013-05-06 00:47:00,
2013-05-05 19:52:00,57.3,47.6,29.85,NNW,348,0.0,2.3,70,0.00,SCT,SKC,0.00,WeatherDisplay:10.37,2013-05-06 00:52:00,
2013-05-05 19:57:00,57.1,47.8,29.85,NNW,348,0.0,1.1,71,0.00,SCT,SKC,0.00,WeatherDisplay:10.37,2013-05-06 00:57:00,
2013-05-05 20:02:00,56.8,47.5,29.85,NNW,348,0.0,0.0,71,0.00,CLR,SKC,0.00,WeatherDisplay:10.37,2013-05-06 01:02:00,
2013-05-05 20:07:00,56.6,47.3,29.85,NNW,348,0.0,0.0,71,0.00,CLR,SKC,0.00,WeatherDisplay:10.37,2013-05-06 01:07:00,
2013-05-05 20:12:00,56.3,47.0,29.85,NNW,348,0.0,1.1,71,0.00,CLR,SKC,0.00,WeatherDisplay:10.37,2013-05-06 01:12:00,
2013-05-05 20:17:00,56.0,46.7,29.85,NNW,348,0.0,0.0,71,0.00,CLR,SKC,0.00,WeatherDisplay:10.37,2013-05-06 01:17:00,
2013-05-05 20:22:00,55.5,46.6,29.85,NNW,348,0.2,2.3,72,0.00,CLR,SKC,0.00,WeatherDisplay:10.37,2013-05-06 01:22:00,
2013-05-05 20:27:00,55.0,46.5,29.85,NNW,348,0.0,0.0,73,0.00,CLR,SKC,0.00,WeatherDisplay:10.37,2013-05-06 01:27:00,
2013-05-05 20:32:00,54.6,46.1,29.85,NNW,348,1.4,2.3,73,0.00,CLR,SKC,0.00,WeatherDisplay:10.37,2013-05-06 01:32:00,
2013-05-05 20:37:00,54.2,45.7,29.85,NNW,348,0.0,1.1,73,0.00,CLR,SKC,0.00,WeatherDisplay:10.37,2013-05-06 01:37:00,
2013-05-05 20:42:00,53.9,45.8,29.85,NNW,348,0.0,0.0,74,0.00,CLR,SKC,0.00,WeatherDisplay:10.37,2013-05-06 01:42:00,
2013-05-05 20:47:00,53.5,45.4,29.85,NNW,348,1.2,2.3,74,0.00,CLR,SKC,0.00,WeatherDisplay:10.37,2013-05-06 01:47:00,
2013-05-05 20:52:00,53.2,45.5,29.85,NNW,348,0.2,1.1,75,0.00,CLR,SKC,0.00,WeatherDisplay:10.37,2013-05-06 01:52:00,
2013-05-05 20:57:00,52.9,45.2,29.85,NNW,348,0.9,2.3,75,0.00,CLR,SKC,0.00,WeatherDisplay:10.37,2013-05-06 01:57:00,
2013-05-05 21:02:00,52.7,45.3,29.85,NNW,348,2.1,3.5,76,0.00,CLR,SKC,0.00,WeatherDisplay:10.37,2013-05-06 02:02:00,
2013-05-05 21:07:00,52.5,44.8,29.85,NNW,348,1.6,3.5,75,0.00,CLR,SKC,0.00,WeatherDisplay:10.37,2013-05-06 02:07:00,
2013-05-05 21:12:00,52.3,44.6,29.85,NNW,348,1.0,3.5,75,0.00,CLR,SKC,0.00,WeatherDisplay:10.37,2013-05-06 02:12:00,
2013-05-05 21:17:00,51.5,43.5,29.85,NNW,348,0.0,2.3,74,0.00,CLR,SKC,0.00,WeatherDisplay:10.37,2013-05-06 02:17:00,
2013-05-05 21:22:00,50.6,43.0,29.85,NNW,348,0.0,0.0,75,0.00,CLR,SKC,0.00,WeatherDisplay:10.37,2013-05-06 02:22:00,
2013-05-05 21:27:00,49.8,42.5,29.85,NNW,348,0.0,0.0,76,0.00,CLR,SKC,0.00,WeatherDisplay:10.37,2013-05-06 02:27:00,
2013-05-05 21:32:00,49.4,42.8,29.85,NNW,348,0.0,0.0,78,0.00,CLR,SKC,0.00,WeatherDisplay:10.37,2013-05-06 02:32:00,
2013-05-05 21:37:00,49.2,42.6,29.85,NNW,348,0.0,0.0,78,0.00,CLR,SKC,0.00,WeatherDisplay:10.37,2013-05-06 02:37:00,
2013-05-05 21:42:00,49.0,42.4,29.85,NNW,348,0.0,0.0,78,0.00,CLR,SKC,0.00,WeatherDisplay:10.37,2013-05-06 02:42:00,
2013-05-05 21:47:00,48.7,42.1,29.85,NNW,348,0.0,0.0,78,0.00,CLR,SKC,0.00,WeatherDisplay:10.37,2013-05-06 02:47:00,
2013-05-05 21:52:00,48.5,42.3,29.85,NNW,348,0.0,0.0,79,0.00,CLR,SKC,0.00,WeatherDisplay:10.37,2013-05-06 02:52:00,
2013-05-05 21:57:00,48.3,42.1,29.85,NNW,348,0.0,0.0,79,0.00,CLR,SKC,0.00,WeatherDisplay:10.37,2013-05-06 02:57:00,
2013-05-05 22:02:00,48.1,41.9,29.85,NNW,348,0.0,1.1,79,0.00,CLR,SKC,0.00,WeatherDisplay:10.37,2013-05-06 03:02:00,
2013-05-05 22:07:00,48.0,41.8,29.86,NNW,348,0.2,1.1,79,0.00,CLR,SKC,0.00,WeatherDisplay:10.37,2013-05-06 03:07:00,
2013-05-05 22:12:00,47.8,41.6,29.86,NNW,348,0.0,0.0,79,0.00,CLR,SKC,0.00,WeatherDisplay:10.37,2013-05-06 03:12:00,
2013-05-05 22:17:00,47.7,41.8,29.85,NNW,348,0.7,1.1,80,0.00,CLR,SKC,0.00,WeatherDisplay:10.37,2013-05-06 03:17:00,
2013-05-05 22:22:00,47.7,41.8,29.86,NNW,348,0.9,2.3,80,0.00,CLR,SKC,0.00,WeatherDisplay:10.37,2013-05-06 03:22:00,
2013-05-05 22:27:00,47.4,41.2,29.85,NNW,348,0.0,2.3,79,0.00,CLR,SKC,0.00,WeatherDisplay:10.37,2013-05-06 03:27:00,
2013-05-05 22:32:00,47.1,41.2,29.85,NNW,348,0.1,1.1,80,0.00,CLR,SKC,0.00,WeatherDisplay:10.37,2013-05-06 03:32:00,
2013-05-05 22:38:00,46.9,41.1,29.85,NNW,348,0.8,1.1,80,0.00,CLR,SKC,0.00,WeatherDisplay:10.37,2013-05-06 03:38:00,
2013-05-05 22:43:00,46.8,41.0,29.85,NNW,348,0.0,1.1,80,0.00,CLR,SKC,0.00,WeatherDisplay:10.37,2013-05-06 03:43:00,
2013-05-05 22:48:00,46.8,41.0,29.85,NNW,348,0.1,1.1,80,0.00,CLR,SKC,0.00,WeatherDisplay:10.37,2013-05-06 03:48:00,
2013-05-05 22:53:00,46.8,41.3,29.85,NNW,348,1.4,2.3,81,0.00,CLR,SKC,0.00,WeatherDisplay:10.37,2013-05-06 03:53:00,
2013-05-05 22:58:00,46.8,41.0,29.85,NNW,348,0.9,2.3,80,0.00,CLR,SKC,0.00,WeatherDisplay:10.37,2013-05-06 03:58:00,
2013-05-05 23:01:00,46.8,41.0,29.85,NNW,348,1.1,2.3,80,0.00,CLR,SKC,0.00,WeatherDisplay:10.37,2013-05-06 04:01:00,
2013-05-05 23:02:00,46.8,41.0,29.85,NNW,348,0.9,2.3,80,0.00,CLR,SKC,0.00,WeatherDisplay:10.37,2013-05-06 04:02:00,
2013-05-05 23:04:00,46.7,40.9,29.85,NNW,348,1.3,2.3,80,0.00,CLR,SKC,0.00,WeatherDisplay:10.37,2013-05-06 04:04:00,
2013-05-05 23:05:00,46.7,40.9,29.85,NNW,348,1.2,2.3,80,0.00,CLR,SKC,0.00,WeatherDisplay:10.37,2013-05-06 04:05:00,
2013-05-05 23:08:00,46.6,40.8,29.85,NNW,348,0.7,2.3,80,0.00,CLR,SKC,0.00,WeatherDisplay:10.37,2013-05-06 04:08:00,
2013-05-05 23:13:00,46.5,40.7,29.85,NNW,348,1.1,2.3,80,0.00,CLR,SKC,0.00,WeatherDisplay:10.37,2013-05-06 04:13:00,
2013-05-05 23:18:00,46.5,41.0,29.85,NNW,348,1.6,2.3,81,0.00,CLR,SKC,0.00,WeatherDisplay:10.37,2013-05-06 04:18:00,
2013-05-05 23:23:00,46.7,41.2,29.85,NNW,348,2.0,3.0,81,0.00,CLR,SKC,0.00,WeatherDisplay:10.37,2013-05-06 04:23:00,
2013-05-05 23:28:00,46.8,41.3,29.85,NNW,348,2.7,3.5,81,0.00,CLR,SKC,0.00,WeatherDisplay:10.37,2013-05-06 04:28:00,
2013-05-05 23:33:00,46.9,41.4,29.85,NNW,348,2.4,3.5,81,0.00,CLR,SKC,0.00,WeatherDisplay:10.37,2013-05-06 04:33:00,
2013-05-05 23:38:00,47.0,41.5,29.85,NNW,348,1.9,3.5,81,0.00,CLR,SKC,0.00,WeatherDisplay:10.37,2013-05-06 04:38:00,
2013-05-05 23:43:00,47.1,41.6,29.85,NNW,348,1.7,2.3,81,0.00,CLR,SKC,0.00,WeatherDisplay:10.37,2013-05-06 04:43:00,
2013-05-05 23:48:00,47.1,41.2,29.85,NNW,348,2.2,3.5,80,0.00,CLR,SKC,0.00,WeatherDisplay:10.37,2013-05-06 04:48:00,
2013-05-05 23:53:00,46.9,41.1,29.85,NNW,348,2.0,3.5,80,0.00,CLR,SKC,0.00,WeatherDisplay:10.37,2013-05-06 04:53:00,
2013-05-05 23:58:00,46.7,40.9,29.85,NNW,348,2.1,3.5,80,0.00,CLR,SKC,0.00,WeatherDisplay:10.37,2013-05-06 04:58:00,